When you browse on this site, cookies collect data to enhance your experience and personalize the content and advertising you see.
Visit our Privacy Policy to learn more. By continuing to use the site, you agree to this use of cookies and data.
  • In Denmark
  • List of Countries
  • For 7 days
  • Water Temperature
  • Satellite Maps
  • Weather Map
  • Weather Widgets
  • user-avatar
    Login

    Hourly Weather Batan

    Today, 16 December, Sunday

    Time Temperature Precipitation Wind Pressure Humidity
    00:00 +4°C° 0 mm 4 mps 699 mmHg 55%
    01:00 +4°C° 0 mm 4 mps 699 mmHg 54%
    02:00 +4°C° 0 mm 4 mps 699 mmHg 52%
    03:00 +4°C° 0 mm 4 mps 699 mmHg 52%
    04:00 +4°C° 0 mm 4 mps 699 mmHg 52%
    05:00 +4°C° 0 mm 3 mps 699 mmHg 52%
    06:00 +4°C° 0 mm 3 mps 700 mmHg 53%
    07:00 +4°C° 0 mm 3 mps 700 mmHg 53%
    08:00 +4°C° 0 mm 2 mps 701 mmHg 54%
    09:00 +4°C° 0 mm 3 mps 701 mmHg 54%
    10:00 +5°C° 0 mm 3 mps 702 mmHg 54%
    11:00 +6°C° 0 mm 4 mps 702 mmHg 55%
    12:00 +5°C° 0.1 mm 3 mps 703 mmHg 63%
    13:00 +6°C° 0.1 mm 2 mps 703 mmHg 70%
    14:00 +5°C° 0.1 mm 2 mps 703 mmHg 78%
    15:00 +4°C° 0.2 mm 2 mps 704 mmHg 82%
    16:00 +4°C° 0.2 mm 1 mps 705 mmHg 85%
    17:00 +4°C° 0.2 mm 1 mps 706 mmHg 89%
    18:00 +3°C° 0.2 mm 1 mps 706 mmHg 89%
    19:00 +3°C° 0.2 mm 1 mps 706 mmHg 90%
    20:00 +3°C° 0.2 mm 1 mps 707 mmHg 90%
    21:00 +2°C° 0 mm 1 mps 707 mmHg 90%
    22:00 +2°C° 0 mm 1 mps 707 mmHg 89%
    23:00 -1°C° 0 mm 2 mps 707 mmHg 89%

    Tomorrow, 17 December, Monday

    Time Temperature Precipitation Wind Pressure Humidity
    00:00 -1°C° 0 mm 2 mps 707 mmHg 88%
    01:00 -1°C° 0 mm 2 mps 707 mmHg 87%
    02:00 -1°C° 0 mm 2 mps 707 mmHg 86%
    03:00 -1°C° 0 mm 2 mps 707 mmHg 84%
    04:00 -1°C° 0 mm 2 mps 706 mmHg 83%
    05:00 -1°C° 0 mm 2 mps 706 mmHg 81%
    06:00 -1°C° 0 mm 3 mps 706 mmHg 80%
    07:00 -1°C° 0 mm 3 mps 706 mmHg 79%
    08:00 -1°C° 0 mm 3 mps 705 mmHg 77%
    09:00 0°C° 0 mm 3 mps 705 mmHg 75%
    10:00 +1°C° 0 mm 3 mps 704 mmHg 73%
    11:00 +2°C° 0 mm 3 mps 703 mmHg 71%
    12:00 +3°C° 0.1 mm 3 mps 703 mmHg 72%
    13:00 +3°C° 0.1 mm 3 mps 702 mmHg 73%
    14:00 +3°C° 0.1 mm 3 mps 702 mmHg 74%
    15:00 +2°C° 0.1 mm 3 mps 702 mmHg 76%
    16:00 +2°C° 0.1 mm 3 mps 702 mmHg 79%
    17:00 +1°C° 0.1 mm 3 mps 702 mmHg 82%
    18:00 +1°C° 0.1 mm 3 mps 702 mmHg 82%
    19:00 +1°C° 0.1 mm 3 mps 702 mmHg 81%
    20:00 +2°C° 0.1 mm 2 mps 702 mmHg 81%
    21:00 +1°C° 0.1 mm 3 mps 702 mmHg 79%
    22:00 +1°C° 0.1 mm 3 mps 701 mmHg 78%
    23:00 +1°C° 0.1 mm 3 mps 701 mmHg 76%

    Day after tomorrow, 18 December, Tuesday

    Time Temperature Precipitation Wind Pressure Humidity
    00:00 +2°C° 0.1 mm 3 mps 701 mmHg 75%
    01:00 +2°C° 0.1 mm 3 mps 700 mmHg 73%
    02:00 +2°C° 0.1 mm 3 mps 700 mmHg 72%
    03:00 +2°C° 0.1 mm 3 mps 700 mmHg 70%
    04:00 +1°C° 0.1 mm 4 mps 699 mmHg 68%
    05:00 +1°C° 0.1 mm 4 mps 699 mmHg 66%
    06:00 +1°C° 0.1 mm 4 mps 698 mmHg 66%
    07:00 +3°C° 0.1 mm 4 mps 698 mmHg 65%
    08:00 +3°C° 0.1 mm 4 mps 698 mmHg 65%
    09:00 +3°C° 0.1 mm 4 mps 697 mmHg 63%
    10:00 +4°C° 0.1 mm 4 mps 697 mmHg 62%
    11:00 +5°C° 0.1 mm 5 mps 696 mmHg 60%
    12:00 +4°C° 0.2 mm 4 mps 697 mmHg 66%
    13:00 +3°C° 0.2 mm 4 mps 697 mmHg 71%
    14:00 +3°C° 0.2 mm 3 mps 697 mmHg 77%
    15:00 +2°C° 0.7 mm 3 mps 698 mmHg 81%
    16:00 0°C° 0.7 mm 4 mps 699 mmHg 85%
    17:00 -1°C° 0.7 mm 4 mps 700 mmHg 89%
    18:00 -1°C° 0.1 mm 3 mps 700 mmHg 87%
    19:00 -1°C° 0.1 mm 3 mps 701 mmHg 85%
    20:00 -1°C° 0.1 mm 2 mps 701 mmHg 83%
    21:00 -2°C° 0 mm 2 mps 701 mmHg 81%
    22:00 -3°C° 0 mm 2 mps 701 mmHg 80%
    23:00 -3°C° 0 mm 2 mps 701 mmHg 78%

    19 December, Wednesday

    Time Temperature Precipitation Wind Pressure Humidity
    00:00 -3°C° 0 mm 2 mps 701 mmHg 75%
    01:00 -4°C° 0 mm 2 mps 700 mmHg 72%
    02:00 -4°C° 0 mm 2 mps 700 mmHg 69%
    03:00 -4°C° 0 mm 2 mps 700 mmHg 67%
    04:00 -4°C° 0 mm 2 mps 700 mmHg 65%
    05:00 -4°C° 0 mm 2 mps 700 mmHg 63%
    06:00 -4°C° 0 mm 2 mps 700 mmHg 65%
    07:00 -3°C° 0 mm 2 mps 701 mmHg 66%
    08:00 -3°C° 0 mm 2 mps 701 mmHg 68%
    09:00 -2°C° 0 mm 2 mps 701 mmHg 70%
    10:00 -2°C° 0 mm 2 mps 701 mmHg 73%
    11:00 -1°C° 0 mm 2 mps 701 mmHg 75%
    12:00 -1°C° 0.1 mm 2 mps 701 mmHg 78%
    13:00 -1°C° 0.1 mm 2 mps 700 mmHg 80%
    14:00 -1°C° 0.1 mm 2 mps 700 mmHg 83%
    15:00 -1°C° 0.1 mm 2 mps 701 mmHg 86%
    16:00 -2°C° 0.1 mm 2 mps 701 mmHg 88%
    17:00 -2°C° 0.1 mm 2 mps 701 mmHg 91%
    18:00 -2°C° 0.1 mm 2 mps 702 mmHg 90%
    19:00 -2°C° 0.1 mm 2 mps 702 mmHg 90%
    20:00 -3°C° 0.1 mm 2 mps 702 mmHg 90%
    21:00 -3°C° 0.1 mm 2 mps 703 mmHg 89%
    22:00 -3°C° 0.1 mm 2 mps 703 mmHg 89%
    23:00 -3°C° 0.1 mm 2 mps 703 mmHg 89%

    20 December, Thursday

    Time Temperature Precipitation Wind Pressure Humidity
    00:00 -1°C° 0.1 mm 1 mps 703 mmHg 89%
    01:00 -1°C° 0.1 mm 1 mps 703 mmHg 89%
    02:00 -1°C° 0.1 mm 1 mps 703 mmHg 89%
    03:00 -1°C° 0.1 mm 1 mps 703 mmHg 89%
    04:00 -1°C° 0.1 mm 1 mps 703 mmHg 89%
    05:00 -1°C° 0.1 mm 1 mps 704 mmHg 89%
    06:00 -1°C° 0.1 mm 1 mps 704 mmHg 89%
    07:00 -1°C° 0.1 mm 1 mps 704 mmHg 88%
    08:00 -1°C° 0.1 mm 1 mps 705 mmHg 88%
    09:00 0°C° 0.1 mm 1 mps 705 mmHg 86%
    10:00 0°C° 0.1 mm 1 mps 705 mmHg 84%
    11:00 -1°C° 0.1 mm 2 mps 705 mmHg 82%
    12:00 -1°C° 0.1 mm 2 mps 705 mmHg 82%
    13:00 -1°C° 0.1 mm 2 mps 704 mmHg 82%
    14:00 -1°C° 0.1 mm 2 mps 704 mmHg 82%
    15:00 -1°C° 0.1 mm 2 mps 704 mmHg 84%
    16:00 -2°C° 0.1 mm 2 mps 704 mmHg 87%
    17:00 -3°C° 0.1 mm 2 mps 705 mmHg 89%
    18:00 -3°C° 0.1 mm 2 mps 705 mmHg 89%
    19:00 -3°C° 0.1 mm 2 mps 705 mmHg 88%
    20:00 -3°C° 0.1 mm 2 mps 705 mmHg 87%
    21:00 -3°C° 0.1 mm 2 mps 704 mmHg 86%
    22:00 -3°C° 0.1 mm 2 mps 704 mmHg 85%
    23:00 -3°C° 0.1 mm 2 mps 704 mmHg 84%

    21 December, Friday

    Time Temperature Precipitation Wind Pressure Humidity
    00:00 -3°C° 0 mm 2 mps 704 mmHg 83%
    01:00 -3°C° 0 mm 2 mps 703 mmHg 82%
    02:00 -3°C° 0 mm 2 mps 703 mmHg 82%
    03:00 -3°C° 0 mm 2 mps 703 mmHg 80%
    04:00 -3°C° 0 mm 2 mps 703 mmHg 79%
    05:00 -3°C° 0 mm 2 mps 703 mmHg 78%
    06:00 -3°C° 0 mm 2 mps 703 mmHg 77%
    07:00 -3°C° 0 mm 2 mps 703 mmHg 76%
    08:00 -4°C° 0 mm 3 mps 702 mmHg 76%
    09:00 -2°C° 0 mm 3 mps 702 mmHg 73%
    10:00 -1°C° 0 mm 3 mps 701 mmHg 71%
    11:00 0°C° 0 mm 3 mps 701 mmHg 69%
    12:00 0°C° 0 mm 3 mps 700 mmHg 69%
    13:00 0°C° 0 mm 3 mps 700 mmHg 68%
    14:00 +1°C° 0 mm 3 mps 699 mmHg 68%
    15:00 0°C° 0 mm 3 mps 699 mmHg 69%
    16:00 -1°C° 0 mm 3 mps 699 mmHg 70%
    17:00 -2°C° 0 mm 3 mps 699 mmHg 72%
    18:00 -2°C° 0 mm 3 mps 699 mmHg 70%
    19:00 -4°C° 0 mm 3 mps 699 mmHg 68%
    20:00 -4°C° 0 mm 3 mps 699 mmHg 66%
    21:00 -2°C° 0 mm 3 mps 698 mmHg 66%
    22:00 -2°C° 0 mm 3 mps 698 mmHg 65%
    23:00 -2°C° 0 mm 3 mps 697 mmHg 64%
    Show more